F3965 Weather Reports


time (UTC)temp
C
wind
direction
speed
KPH
gust
KPH
rain 1hr
cm
rain 24hr
cm
rain mn
cm
humidity
%
barometer
mb
20260508024552 10 0 0.0 8.0 0.00 0.13 0.00 57 1010.2
20260508023030 10 0 0.0 0.0 0.00 0.13 0.00 57 1010.1
20260508021531 10 0 0.0 0.0 0.00 0.13 0.00 57 1010.0
20260508020035 10 0 0.0 0.0 0.00 0.13 0.00 57 1010.2
20260508014536 10 0 0.0 3.2 0.00 0.13 0.00 56 1010.1
20260508013035 10 184 3.2 11.3 0.00 0.13 0.00 57 1010.2
20260508011532 10 0 0.0 3.2 0.00 0.13 0.00 56 1010.3
20260508010042 11 0 0.0 4.8 0.00 0.13 0.00 57 1010.6
20260508004543 10 0 0.0 8.0 0.00 0.13 0.00 56 1010.7
20260508003030 11 176 6.4 12.9 0.00 0.13 0.00 56 1010.6
20260508001538 11 211 6.4 11.3 0.00 0.13 0.00 56 1010.5
20260508000032 11 198 3.2 4.8 0.00 0.13 0.00 56 1010.7
20260507234534 11 0 0.0 4.8 0.00 0.13 0.00 56 1010.8
20260507233034 11 200 1.6 6.4 0.00 0.13 0.00 55 1010.7
20260507231534 11 202 4.8 9.7 0.00 0.13 0.00 55 1010.8
20260507230030 11 191 1.6 6.4 0.00 0.13 0.00 55 1010.9
20260507224532 12 0 0.0 0.0 0.00 0.13 0.00 55 1011.0
20260507223030 12 0 0.0 0.0 0.00 0.13 0.00 54 1011.0
20260507221536 12 0 0.0 0.0 0.00 0.13 0.00 55 1011.0
20260507220031 12 0 0.0 0.0 0.00 0.13 0.00 54 1011.0
20260507214535 12 0 0.0 0.0 0.00 0.13 0.13 54 1011.0
20260507213032 13 0 0.0 0.0 0.00 0.13 0.13 54 1010.8
20260507211533 13 0 0.0 0.0 0.00 0.13 0.13 54 1010.7
20260507210038 13 0 0.0 0.0 0.00 0.13 0.13 53 1010.7
20260507204531 13 0 0.0 0.0 0.00 0.13 0.13 53 1010.6
20260507203042 13 0 0.0 0.0 0.00 0.13 0.13 53 1010.2
20260507201533 14 0 0.0 0.0 0.00 0.13 0.13 52 1010.2
20260507200035 15 0 0.0 0.0 0.00 0.13 0.13 52 1010.0
20260507194534 15 0 0.0 0.0 0.00 0.13 0.13 51 1009.9
20260507193037 15 0 0.0 0.0 0.00 0.13 0.13 50 1009.8
20260507191538 16 0 0.0 0.0 0.00 0.13 0.13 47 1009.7
20260507190034 16 0 0.0 3.2 0.00 0.13 0.13 47 1009.7
20260507184530 15 0 0.0 4.8 0.00 0.13 0.13 49 1009.7
20260507183035 15 0 0.0 4.8 0.00 0.13 0.13 51 1009.7
20260507181534 15 256 8.0 16.1 0.00 0.13 0.13 51 1009.5
20260507180037 16 249 0.0 14.5 0.00 0.10 0.10 51 1009.5
20260507174543 16 0 0.0 0.0 0.05 0.10 0.10 52 1009.6
20260507173052 15 0 0.0 4.8 0.10 0.10 0.10 50 1009.6
20260507171538 15 0 1.6 6.4 0.10 0.10 0.10 51 1009.7
20260507170039 16 221 8.0 24.1 0.10 0.10 0.10 51 1010.0
20260507164535 17 28 8.0 19.3 0.03 0.03 0.03 46 1010.1
20260507163033 18 27 9.7 22.5 0.00 0.00 0.00 41 1010.2
20260507161540 19 25 17.7 32.2 0.00 0.00 0.00 38 1009.7
20260507160038 20 10 22.5 43.5 0.00 0.00 0.00 34 1009.3
20260507154532 22 0 0.0 4.8 0.00 0.05 0.00 35 1008.7
20260507153033 22 197 3.2 16.1 0.00 0.05 0.00 33 1008.6
20260507151534 22 195 4.8 20.9 0.00 0.05 0.00 33 1008.4
20260507150039 22 175 9.7 19.3 0.00 0.05 0.00 35 1008.5
20260507144535 22 166 9.7 20.9 0.00 0.15 0.00 38 1008.7
20260507143043 21 164 9.7 19.3 0.00 0.15 0.00 42 1008.9
20260507141546 21 211 8.0 19.3 0.00 0.15 0.00 42 1009.0
20260507140032 20 189 6.4 17.7 0.00 0.15 0.00 44 1009.0
20260507134534 20 188 1.6 17.7 0.00 0.15 0.00 46 1009.3
20260507133105 21 180 9.7 20.9 0.00 0.15 0.00 43 1009.4
20260507131538 22 168 8.0 16.1 0.00 0.15 0.00 39 1009.4
20260507130036 22 181 3.2 11.3 0.00 0.15 0.00 38 1009.5
20260507124534 22 221 4.8 12.9 0.00 0.15 0.00 38 1009.7
20260507123039 21 70 1.6 6.4 0.00 0.15 0.00 37 1010.0
20260507121537 21 68 1.6 11.3 0.00 0.15 0.00 40 1010.2
20260507120036 20 85 4.8 14.5 0.00 0.15 0.00 39 1010.6
20260507114539 20 90 1.6 11.3 0.00 0.15 0.00 41 1010.8
20260507113036 20 188 0.0 11.3 0.00 0.15 0.00 42 1010.8
20260507111531 20 234 3.2 6.4 0.00 0.15 0.00 41 1010.9
20260507110040 19 194 8.0 17.7 0.00 0.15 0.00 40 1011.1
20260507104534 18 0 3.2 9.7 0.00 0.15 0.00 41 1011.4
20260507103038 17 181 0.0 11.3 0.00 0.15 0.00 41 1011.5
20260507101536 17 247 3.2 11.3 0.00 0.15 0.00 41 1011.7
20260507100032 16 304 6.4 14.5 0.00 0.15 0.00 45 1011.9
20260507094542 15 0 1.6 11.3 0.00 0.15 0.00 47 1012.1
20260507093034 14 215 3.2 9.7 0.00 0.15 0.00 51 1012.2
20260507091535 13 205 3.2 6.4 0.00 0.15 0.00 57 1012.4
20260507090035 11 205 1.6 9.7 0.00 0.15 0.00 63 1012.6
20260507084531 10 217 3.2 8.0 0.00 0.15 0.00 66 1012.7
20260507083032 10 213 1.6 6.4 0.00 0.15 0.00 66 1012.9
20260507081539 9 214 1.6 8.0 0.00 0.15 0.00 67 1013.1
20260507080031 8 182 3.2 6.4 0.00 0.15 0.00 67 1013.2
20260507074534 8 179 1.6 4.8 0.00 0.15 0.00 67 1013.4
20260507073031 8 0 1.6 4.8 0.00 0.15 0.00 67 1013.3
20260507071530 7 180 3.2 6.4 0.00 0.15 0.00 67 1013.3
20260507070044 7 182 0.0 4.8 0.00 0.15 0.00 67 1013.5
20260507064541 7 177 1.6 9.7 0.00 0.15 0.00 67 1013.5
20260507063035 7 181 6.4 12.9 0.00 0.15 0.00 67 1013.5
20260507061537 7 207 3.2 8.0 0.00 0.15 0.00 67 1013.5
20260507060032 7 171 1.6 9.7 0.00 0.15 0.00 67 1013.6
20260507054533 7 171 1.6 11.3 0.00 0.15 0.00 67 1013.6
20260507053034 7 232 4.8 11.3 0.00 0.15 0.00 66 1013.7
20260507051532 7 200 3.2 8.0 0.00 0.15 0.00 67 1013.5
20260507050036 7 198 4.8 8.0 0.00 0.15 0.00 67 1013.5
20260507044531 7 167 1.6 8.0 0.00 0.15 0.00 66 1013.6
20260507043030 7 167 4.8 9.7 0.00 0.15 0.00 66 1013.8
20260507041534 7 173 1.6 8.0 0.00 0.15 0.00 66 1013.6
20260507040041 7 173 3.2 8.0 0.00 0.15 0.00 66 1013.7
20260507034540 7 173 1.6 8.0 0.00 0.15 0.00 66 1013.7
20260507033043 7 180 3.2 6.4 0.00 0.15 0.00 66 1013.9
20260507031545 7 194 1.6 6.4 0.00 0.15 0.00 66 1013.9
20260507030033 7 200 0.0 4.8 0.00 0.15 0.00 66 1013.8